| time (UTC) | temp F | wind direction | speed MPH | gust MPH | rain 1hr in | rain 24hr in | rain mn in | humidity % | barometer mb |
| 20260905215007 | 67 | 223 | 2.0 | 7.0 | 0.00 | 0.09 | 0.09 | 70 | 1024.3 |
| 20260905214507 | 67 | 189 | 2.0 | 7.0 | 0.00 | 0.09 | 0.09 | 69 | 1024.2 |
| 20260905214006 | 68 | 221 | 2.0 | 7.0 | 0.00 | 0.09 | 0.09 | 69 | 1024.1 |
| 20260905213509 | 68 | 228 | 2.0 | 7.0 | 0.00 | 0.09 | 0.09 | 69 | 1024.0 |
| 20260905213008 | 68 | 235 | 2.0 | 6.0 | 0.00 | 0.09 | 0.09 | 68 | 1024.0 |
| 20260905212507 | 68 | 255 | 3.0 | 10.0 | 0.00 | 0.09 | 0.09 | 67 | 1024.0 |
| 20260905212003 | 69 | 217 | 3.0 | 10.0 | 0.00 | 0.09 | 0.09 | 67 | 1024.0 |
| 20260905211503 | 69 | 232 | 3.0 | 11.0 | 0.00 | 0.09 | 0.09 | 66 | 1023.8 |
| 20260905211002 | 69 | 219 | 3.0 | 11.0 | 0.00 | 0.09 | 0.09 | 66 | 1023.8 |
| 20260905210502 | 69 | 241 | 3.0 | 8.0 | 0.00 | 0.09 | 0.09 | 66 | 1023.8 |
| 20260905210002 | 69 | 131 | 4.0 | 8.0 | 0.00 | 0.09 | 0.09 | 65 | 1023.7 |
| 20260905205503 | 70 | 127 | 4.0 | 11.0 | 0.00 | 0.09 | 0.09 | 65 | 1023.6 |
| 20260905204958 | 70 | 172 | 3.0 | 11.0 | 0.00 | 0.09 | 0.09 | 65 | 1023.8 |
| 20260905204500 | 70 | 217 | 3.0 | 9.0 | 0.00 | 0.09 | 0.09 | 65 | 1023.7 |
| 20260905203953 | 70 | 216 | 3.0 | 10.0 | 0.00 | 0.09 | 0.09 | 65 | 1023.7 |
| 20260905203446 | 70 | 225 | 3.0 | 10.0 | 0.00 | 0.09 | 0.09 | 64 | 1023.7 |
| 20260905203427 | 70 | 226 | 4.0 | 10.0 | 0.00 | 0.09 | 0.09 | 64 | 1023.7 |
| 20260905202435 | 70 | 245 | 4.0 | 11.0 | 0.00 | 0.09 | 0.09 | 64 | 1023.6 |
| 20260905201929 | 70 | 249 | 3.0 | 11.0 | 0.00 | 0.09 | 0.09 | 64 | 1023.6 |
| 20260905201424 | 70 | 223 | 3.0 | 9.0 | 0.00 | 0.09 | 0.09 | 64 | 1023.6 |
| 20260905201408 | 71 | 223 | 3.0 | 9.0 | 0.00 | 0.09 | 0.09 | 64 | 1023.6 |
| 20260905200411 | 71 | 238 | 3.0 | 8.0 | 0.00 | 0.09 | 0.09 | 64 | 1023.6 |
| 20260905195905 | 71 | 193 | 3.0 | 8.0 | 0.00 | 0.09 | 0.09 | 64 | 1023.5 |
| 20260905195400 | 71 | 139 | 3.0 | 10.0 | 0.00 | 0.09 | 0.09 | 63 | 1023.6 |
| 20260905194853 | 71 | 214 | 3.0 | 10.0 | 0.00 | 0.09 | 0.09 | 63 | 1023.4 |
| 20260905194347 | 71 | 223 | 4.0 | 10.0 | 0.00 | 0.09 | 0.09 | 63 | 1023.4 |
| 20260905193841 | 71 | 229 | 3.0 | 10.0 | 0.00 | 0.09 | 0.09 | 63 | 1023.3 |
| 20260905193335 | 71 | 139 | 3.0 | 10.0 | 0.00 | 0.09 | 0.09 | 63 | 1023.3 |
| 20260905192830 | 71 | 250 | 3.0 | 10.0 | 0.00 | 0.09 | 0.09 | 63 | 1023.3 |
| 20260905192324 | 71 | 236 | 2.0 | 7.0 | 0.00 | 0.09 | 0.09 | 63 | 1023.3 |
| 20260905191817 | 71 | 129 | 2.0 | 9.0 | 0.00 | 0.09 | 0.09 | 63 | 1023.2 |
| 20260905191312 | 71 | 223 | 2.0 | 7.0 | 0.00 | 0.09 | 0.09 | 63 | 1023.2 |
| 20260905191253 | 71 | 256 | 2.0 | 7.0 | 0.00 | 0.09 | 0.09 | 63 | 1023.1 |
| 20260905190259 | 71 | 255 | 1.0 | 6.0 | 0.00 | 0.09 | 0.09 | 62 | 1023.2 |
| 20260905190240 | 71 | 227 | 2.0 | 8.0 | 0.00 | 0.09 | 0.09 | 62 | 1023.1 |
| 20260905185248 | 71 | 235 | 2.0 | 8.0 | 0.00 | 0.09 | 0.09 | 61 | 1023.0 |
| 20260905184940 | 71 | 243 | 1.0 | 8.0 | 0.00 | 0.09 | 0.09 | 62 | 1022.9 |
| 20260905184932 | 71 | 237 | 2.0 | 8.0 | 0.00 | 0.09 | 0.09 | 61 | 1022.9 |
| 20260905183729 | 71 | 163 | 1.0 | 5.0 | 0.00 | 0.09 | 0.09 | 62 | 1022.8 |
| 20260905183223 | 72 | 162 | 1.0 | 5.0 | 0.00 | 0.09 | 0.09 | 61 | 1022.7 |
| 20260905183203 | 72 | 242 | 1.0 | 6.0 | 0.00 | 0.09 | 0.09 | 61 | 1022.8 |
| 20260905182211 | 72 | 236 | 1.0 | 7.0 | 0.00 | 0.09 | 0.09 | 61 | 1022.6 |
| 20260905181718 | 72 | 225 | 1.0 | 7.0 | 0.00 | 0.09 | 0.09 | 61 | 1022.6 |
| 20260905181400 | 72 | 180 | 1.0 | 6.0 | 0.00 | 0.09 | 0.09 | 60 | 1022.5 |
| 20260905181346 | 72 | 224 | 1.0 | 6.0 | 0.00 | 0.09 | 0.09 | 60 | 1022.5 |
| 20260905181341 | 72 | 231 | 1.0 | 6.0 | 0.00 | 0.09 | 0.09 | 60 | 1022.6 |
| 20260905175641 | 72 | 265 | 1.0 | 7.0 | 0.00 | 0.09 | 0.09 | 60 | 1022.4 |
| 20260905175135 | 73 | 237 | 2.0 | 7.0 | 0.00 | 0.09 | 0.09 | 59 | 1022.3 |
| 20260905174630 | 73 | 152 | 1.0 | 6.0 | 0.00 | 0.09 | 0.09 | 59 | 1022.2 |
| 20260905174126 | 73 | 207 | 1.0 | 5.0 | 0.00 | 0.09 | 0.09 | 58 | 1022.1 |
| 20260905173617 | 73 | 233 | 1.0 | 4.0 | 0.00 | 0.09 | 0.09 | 58 | 1022.1 |
| 20260905173111 | 73 | 217 | 1.0 | 4.0 | 0.00 | 0.09 | 0.09 | 57 | 1022.0 |
| 20260905172605 | 74 | 231 | 2.0 | 6.0 | 0.00 | 0.09 | 0.09 | 57 | 1022.0 |
| 20260905172115 | 74 | 233 | 2.0 | 6.0 | 0.00 | 0.09 | 0.09 | 56 | 1021.9 |
| 20260905171555 | 74 | 218 | 2.0 | 7.0 | 0.00 | 0.09 | 0.09 | 56 | 1021.9 |
| 20260905171047 | 74 | 276 | 2.0 | 7.0 | 0.00 | 0.09 | 0.09 | 56 | 1021.9 |
| 20260905170541 | 75 | 257 | 3.0 | 8.0 | 0.00 | 0.09 | 0.09 | 55 | 1021.8 |
| 20260905170037 | 75 | 260 | 3.0 | 8.0 | 0.00 | 0.09 | 0.09 | 54 | 1021.8 |
| 20260905170015 | 76 | 224 | 3.0 | 11.0 | 0.00 | 0.09 | 0.09 | 53 | 1021.6 |
| 20260905165026 | 76 | 230 | 3.0 | 11.0 | 0.00 | 0.09 | 0.09 | 52 | 1021.6 |
| 20260905164517 | 76 | 119 | 3.0 | 9.0 | 0.00 | 0.09 | 0.09 | 52 | 1021.6 |
| 20260905164010 | 76 | 253 | 3.0 | 10.0 | 0.00 | 0.09 | 0.09 | 51 | 1021.5 |
| 20260905163511 | 76 | 214 | 3.0 | 10.0 | 0.00 | 0.09 | 0.09 | 51 | 1021.5 |
| 20260905163010 | 76 | 259 | 4.0 | 9.0 | 0.00 | 0.09 | 0.09 | 51 | 1021.5 |
| 20260905162958 | 76 | 270 | 3.0 | 9.0 | 0.00 | 0.09 | 0.09 | 52 | 1021.4 |
| 20260905162008 | 76 | 228 | 3.0 | 9.0 | 0.00 | 0.09 | 0.09 | 53 | 1021.3 |
| 20260905161508 | 75 | 231 | 3.0 | 9.0 | 0.00 | 0.09 | 0.09 | 54 | 1021.3 |
| 20260905161008 | 76 | 39 | 3.0 | 12.0 | 0.00 | 0.09 | 0.09 | 53 | 1021.4 |
| 20260905160510 | 76 | 218 | 3.0 | 12.0 | 0.00 | 0.09 | 0.09 | 53 | 1021.3 |
| 20260905160006 | 76 | 142 | 3.0 | 12.0 | 0.00 | 0.09 | 0.09 | 52 | 1021.3 |
| 20260905155506 | 77 | 194 | 3.0 | 12.0 | 0.00 | 0.09 | 0.09 | 52 | 1021.3 |
| 20260905155005 | 76 | 214 | 4.0 | 12.0 | 0.00 | 0.09 | 0.09 | 53 | 1021.4 |
| 20260905154955 | 76 | 201 | 5.0 | 12.0 | 0.00 | 0.09 | 0.09 | 53 | 1021.3 |
| 20260905154004 | 77 | 221 | 4.0 | 13.0 | 0.00 | 0.09 | 0.09 | 53 | 1021.4 |
| 20260905153505 | 76 | 195 | 4.0 | 13.0 | 0.00 | 0.09 | 0.09 | 53 | 1021.3 |
| 20260905153002 | 76 | 141 | 3.0 | 12.0 | 0.00 | 0.09 | 0.09 | 53 | 1021.2 |
| 20260905152502 | 77 | 257 | 3.0 | 12.0 | 0.00 | 0.09 | 0.09 | 53 | 1021.1 |
| 20260905152004 | 77 | 158 | 4.0 | 11.0 | 0.00 | 0.09 | 0.09 | 53 | 1021.1 |
| 20260905151501 | 77 | 200 | 4.0 | 14.0 | 0.00 | 0.09 | 0.09 | 52 | 1021.0 |
| 20260905151000 | 77 | 251 | 3.0 | 14.0 | 0.00 | 0.09 | 0.09 | 52 | 1021.1 |
| 20260905150454 | 77 | 224 | 4.0 | 12.0 | 0.00 | 0.09 | 0.09 | 53 | 1021.1 |
| 20260905145949 | 77 | 243 | 5.0 | 12.0 | 0.00 | 0.09 | 0.09 | 52 | 1021.2 |
| 20260905145927 | 77 | 227 | 4.0 | 11.0 | 0.00 | 0.09 | 0.09 | 54 | 1021.1 |
| 20260905144935 | 78 | 246 | 4.0 | 11.0 | 0.00 | 0.09 | 0.09 | 54 | 1021.2 |
| 20260905144430 | 77 | 192 | 4.0 | 11.0 | 0.00 | 0.09 | 0.09 | 54 | 1021.1 |
| 20260905143923 | 78 | 160 | 4.0 | 11.0 | 0.00 | 0.09 | 0.09 | 54 | 1021.1 |
| 20260905143418 | 77 | 219 | 4.0 | 10.0 | 0.00 | 0.09 | 0.09 | 55 | 1021.0 |
| 20260905142912 | 77 | 169 | 5.0 | 11.0 | 0.00 | 0.09 | 0.09 | 55 | 1021.1 |
| 20260905142408 | 76 | 226 | 6.0 | 14.0 | 0.00 | 0.09 | 0.09 | 55 | 1021.1 |
| 20260905142356 | 76 | 258 | 5.0 | 14.0 | 0.00 | 0.09 | 0.09 | 55 | 1021.1 |
| 20260905141354 | 77 | 155 | 5.0 | 10.0 | 0.00 | 0.09 | 0.09 | 55 | 1021.1 |
| 20260905140848 | 76 | 199 | 6.0 | 14.0 | 0.00 | 0.09 | 0.09 | 56 | 1021.1 |
| 20260905140342 | 76 | 197 | 5.0 | 14.0 | 0.00 | 0.09 | 0.09 | 57 | 1021.2 |
| 20260905135839 | 76 | 212 | 5.0 | 12.0 | 0.00 | 0.09 | 0.09 | 56 | 1021.1 |
| 20260905135332 | 76 | 177 | 5.0 | 11.0 | 0.00 | 0.09 | 0.09 | 57 | 1021.2 |
| 20260905134825 | 76 | 85 | 6.0 | 14.0 | 0.00 | 0.09 | 0.09 | 57 | 1021.3 |
| 20260905134319 | 76 | 205 | 5.0 | 14.0 | 0.00 | 0.09 | 0.09 | 56 | 1021.3 |
| 20260905133812 | 76 | 292 | 5.0 | 14.0 | 0.00 | 0.09 | 0.09 | 57 | 1021.3 |
| 20260905133310 | 76 | 224 | 5.0 | 15.0 | 0.00 | 0.09 | 0.09 | 57 | 1021.3 |
| 20260905132810 | 75 | 330 | 5.0 | 15.0 | 0.00 | 0.09 | 0.09 | 56 | 1021.3 |
| 20260905132310 | 75 | 162 | 6.0 | 15.0 | 0.00 | 0.09 | 0.09 | 58 | 1021.4 |
| 20260905131808 | 75 | 181 | 6.0 | 16.0 | 0.00 | 0.09 | 0.09 | 58 | 1021.4 |
| 20260905131311 | 75 | 255 | 5.0 | 16.0 | 0.00 | 0.09 | 0.09 | 57 | 1021.4 |
| 20260905130808 | 75 | 182 | 6.0 | 16.0 | 0.00 | 0.09 | 0.09 | 58 | 1021.6 |
| 20260905130306 | 75 | 164 | 8.0 | 16.0 | 0.00 | 0.09 | 0.09 | 59 | 1021.6 |
| 20260905125806 | 75 | 229 | 6.0 | 15.0 | 0.00 | 0.09 | 0.09 | 58 | 1021.5 |
| 20260905125306 | 75 | 261 | 5.0 | 13.0 | 0.00 | 0.09 | 0.09 | 59 | 1021.7 |
| 20260905124806 | 75 | 248 | 7.0 | 13.0 | 0.00 | 0.09 | 0.09 | 59 | 1021.6 |
| 20260905124307 | 75 | 211 | 6.0 | 16.0 | 0.00 | 0.09 | 0.09 | 60 | 1021.6 |
| 20260905123807 | 75 | 241 | 5.0 | 16.0 | 0.00 | 0.09 | 0.09 | 59 | 1021.7 |
| 20260905123751 | 75 | 183 | 6.0 | 14.0 | 0.00 | 0.09 | 0.09 | 60 | 1021.7 |
| 20260905122806 | 74 | 238 | 6.0 | 12.0 | 0.00 | 0.09 | 0.09 | 60 | 1021.6 |
| 20260905122309 | 75 | 279 | 5.0 | 12.0 | 0.00 | 0.09 | 0.09 | 60 | 1021.7 |
| 20260905121806 | 75 | 206 | 5.0 | 12.0 | 0.00 | 0.09 | 0.09 | 60 | 1021.7 |
| 20260905121300 | 75 | 270 | 4.0 | 12.0 | 0.00 | 0.09 | 0.09 | 61 | 1021.6 |
| 20260905120756 | 74 | 200 | 5.0 | 13.0 | 0.00 | 0.09 | 0.09 | 61 | 1021.8 |
| 20260905120248 | 74 | 229 | 6.0 | 17.0 | 0.00 | 0.09 | 0.09 | 62 | 1021.8 |
| 20260905115742 | 73 | 203 | 6.0 | 17.0 | 0.00 | 0.09 | 0.09 | 63 | 1021.8 |
| 20260905115236 | 74 | 248 | 5.0 | 14.0 | 0.00 | 0.09 | 0.09 | 62 | 1021.8 |
| 20260905114731 | 73 | 214 | 5.0 | 14.0 | 0.00 | 0.09 | 0.09 | 63 | 1021.7 |
| 20260905114224 | 73 | 230 | 5.0 | 14.0 | 0.00 | 0.09 | 0.09 | 63 | 1021.8 |
| 20260905113718 | 73 | 105 | 4.0 | 10.0 | 0.00 | 0.09 | 0.09 | 64 | 1021.9 |
| 20260905113212 | 73 | 206 | 3.0 | 9.0 | 0.00 | 0.09 | 0.09 | 64 | 1021.9 |
| 20260905112706 | 73 | 232 | 4.0 | 12.0 | 0.00 | 0.09 | 0.09 | 65 | 1022.0 |
| 20260905112200 | 72 | 146 | 5.0 | 12.0 | 0.00 | 0.09 | 0.09 | 66 | 1021.9 |
| 20260905111654 | 72 | 252 | 4.0 | 14.0 | 0.00 | 0.09 | 0.09 | 66 | 1021.9 |
| 20260905111148 | 72 | 218 | 4.0 | 14.0 | 0.00 | 0.09 | 0.09 | 65 | 1022.0 |
| 20260905110642 | 71 | 226 | 5.0 | 11.0 | 0.00 | 0.09 | 0.09 | 69 | 1021.9 |
| 20260905110135 | 71 | 213 | 6.0 | 13.0 | 0.00 | 0.09 | 0.09 | 69 | 1021.9 |
| 20260905105630 | 70 | 288 | 7.0 | 18.0 | 0.00 | 0.09 | 0.09 | 71 | 1022.0 |
| 20260905105123 | 69 | 209 | 8.0 | 18.0 | 0.00 | 0.09 | 0.09 | 71 | 1022.1 |
| 20260905104618 | 69 | 250 | 6.0 | 16.0 | 0.00 | 0.09 | 0.09 | 71 | 1022.1 |
| 20260905104112 | 69 | 216 | 6.0 | 14.0 | 0.00 | 0.09 | 0.09 | 72 | 1022.0 |
| 20260905103606 | 69 | 194 | 6.0 | 15.0 | 0.00 | 0.09 | 0.09 | 73 | 1022.1 |
| 20260905103100 | 69 | 302 | 5.0 | 15.0 | 0.00 | 0.09 | 0.09 | 73 | 1022.1 |
| 20260905102554 | 68 | 245 | 7.0 | 17.0 | 0.00 | 0.09 | 0.09 | 73 | 1022.0 |
| 20260905102050 | 68 | 215 | 7.0 | 19.0 | 0.00 | 0.09 | 0.09 | 73 | 1022.0 |
| 20260905101544 | 68 | 207 | 5.0 | 19.0 | 0.00 | 0.09 | 0.09 | 75 | 1022.2 |
| 20260905101036 | 67 | 198 | 4.0 | 12.0 | 0.00 | 0.09 | 0.09 | 77 | 1022.1 |
| 20260905100530 | 67 | 210 | 5.0 | 12.0 | 0.00 | 0.09 | 0.09 | 76 | 1022.1 |
| 20260905100024 | 66 | 195 | 5.0 | 13.0 | 0.01 | 0.09 | 0.09 | 76 | 1022.2 |
| 20260905095522 | 66 | 159 | 5.0 | 13.0 | 0.01 | 0.09 | 0.09 | 77 | 1022.2 |
| 20260905095022 | 66 | 46 | 4.0 | 13.0 | 0.01 | 0.09 | 0.09 | 77 | 1022.3 |
| 20260905094520 | 65 | 207 | 4.0 | 13.0 | 0.01 | 0.09 | 0.09 | 78 | 1022.2 |
| 20260905094020 | 65 | 231 | 3.0 | 12.0 | 0.01 | 0.09 | 0.09 | 79 | 1022.2 |
| 20260905093520 | 65 | 206 | 2.0 | 12.0 | 0.01 | 0.09 | 0.09 | 80 | 1022.2 |
| 20260905093018 | 65 | 139 | 2.0 | 8.0 | 0.01 | 0.09 | 0.09 | 81 | 1022.3 |
| 20260905092519 | 64 | 276 | 2.0 | 8.0 | 0.01 | 0.09 | 0.09 | 81 | 1022.3 |
| 20260905092020 | 64 | 223 | 2.0 | 8.0 | 0.01 | 0.09 | 0.09 | 81 | 1022.3 |
| 20260905091518 | 64 | 258 | 2.0 | 8.0 | 0.02 | 0.09 | 0.09 | 81 | 1022.3 |
| 20260905091018 | 63 | 264 | 3.0 | 10.0 | 0.02 | 0.09 | 0.09 | 82 | 1022.2 |
| 20260905090516 | 63 | 198 | 3.0 | 10.0 | 0.02 | 0.09 | 0.09 | 82 | 1022.2 |
| 20260905090016 | 63 | 253 | 2.0 | 9.0 | 0.01 | 0.08 | 0.08 | 83 | 1022.1 |
| 20260905085515 | 63 | 231 | 2.0 | 9.0 | 0.01 | 0.08 | 0.08 | 83 | 1022.0 |
| 20260905085012 | 63 | 252 | 2.0 | 7.0 | 0.01 | 0.08 | 0.08 | 83 | 1022.0 |
| 20260905084513 | 62 | 226 | 2.0 | 8.0 | 0.01 | 0.08 | 0.08 | 82 | 1022.0 |
| 20260905084012 | 62 | 193 | 3.0 | 9.0 | 0.01 | 0.08 | 0.08 | 82 | 1022.1 |
| 20260905083510 | 62 | 214 | 3.0 | 9.0 | 0.01 | 0.08 | 0.08 | 82 | 1022.2 |
| 20260905083006 | 62 | 203 | 4.0 | 9.0 | 0.01 | 0.08 | 0.08 | 82 | 1022.3 |
| 20260905082506 | 62 | 208 | 4.0 | 9.0 | 0.01 | 0.08 | 0.08 | 81 | 1022.3 |
| 20260905082006 | 62 | 191 | 4.0 | 8.0 | 0.01 | 0.08 | 0.08 | 81 | 1022.5 |
| 20260905081506 | 62 | 174 | 4.0 | 8.0 | 0.00 | 0.07 | 0.07 | 82 | 1022.5 |
| 20260905081008 | 62 | 76 | 4.0 | 9.0 | 0.00 | 0.07 | 0.07 | 82 | 1022.2 |
| 20260905080506 | 62 | 177 | 5.0 | 10.0 | 0.00 | 0.07 | 0.07 | 82 | 1022.4 |
| 20260905080006 | 62 | 129 | 5.0 | 10.0 | 0.00 | 0.07 | 0.07 | 83 | 1022.6 |
| 20260905075506 | 62 | 221 | 4.0 | 8.0 | 0.01 | 0.07 | 0.07 | 83 | 1022.5 |
| 20260905075005 | 62 | 126 | 3.0 | 8.0 | 0.01 | 0.07 | 0.07 | 83 | 1022.6 |
| 20260905074503 | 62 | 233 | 2.0 | 6.0 | 0.02 | 0.07 | 0.07 | 83 | 1022.8 |
| 20260905074002 | 61 | 89 | 2.0 | 6.0 | 0.02 | 0.07 | 0.07 | 83 | 1022.5 |
| 20260905073502 | 61 | 174 | 2.0 | 8.0 | 0.02 | 0.07 | 0.07 | 83 | 1022.6 |
| 20260905073003 | 61 | 212 | 2.0 | 8.0 | 0.02 | 0.07 | 0.07 | 84 | 1022.6 |
| 20260905072502 | 61 | 225 | 1.0 | 6.0 | 0.02 | 0.07 | 0.07 | 84 | 1022.6 |
| 20260905072002 | 61 | 238 | 1.0 | 5.0 | 0.02 | 0.07 | 0.07 | 84 | 1022.8 |
| 20260905071502 | 61 | 228 | 1.0 | 5.0 | 0.02 | 0.07 | 0.07 | 84 | 1022.6 |
| 20260905071002 | 61 | 231 | 0.0 | 3.0 | 0.02 | 0.07 | 0.07 | 84 | 1022.4 |
| 20260905070503 | 61 | 233 | 0.0 | 2.0 | 0.02 | 0.07 | 0.07 | 83 | 1022.0 |
| 20260905065958 | 61 | 233 | 1.0 | 6.0 | 0.02 | 0.07 | 0.07 | 82 | 1022.0 |
| 20260905065458 | 62 | 214 | 1.0 | 6.0 | 0.02 | 0.06 | 0.06 | 80 | 1022.0 |
| 20260905065001 | 62 | 224 | 2.0 | 5.0 | 0.02 | 0.06 | 0.06 | 79 | 1022.8 |
| 20260905064457 | 62 | 208 | 1.0 | 5.0 | 0.02 | 0.06 | 0.06 | 77 | 1022.8 |
| 20260905063958 | 63 | 229 | 1.0 | 6.0 | 0.01 | 0.05 | 0.05 | 76 | 1022.4 |
| 20260905063458 | 63 | 127 | 2.0 | 6.0 | 0.01 | 0.05 | 0.05 | 74 | 1022.5 |
| 20260905062958 | 64 | 232 | 1.0 | 6.0 | 0.01 | 0.05 | 0.05 | 73 | 1022.3 |
| 20260905062457 | 64 | 229 | 2.0 | 8.0 | 0.01 | 0.05 | 0.05 | 71 | 1022.0 |
| 20260905061958 | 64 | 238 | 3.0 | 8.0 | 0.01 | 0.05 | 0.05 | 70 | 1021.7 |
| 20260905061454 | 65 | 171 | 5.0 | 14.0 | 0.01 | 0.05 | 0.05 | 69 | 1021.8 |
| 20260905060954 | 65 | 219 | 5.0 | 14.0 | 0.01 | 0.05 | 0.05 | 67 | 1021.6 |
| 20260905060454 | 65 | 220 | 5.0 | 14.0 | 0.01 | 0.05 | 0.05 | 67 | 1021.5 |
| 20260905055954 | 66 | 204 | 5.0 | 14.0 | 0.01 | 0.05 | 0.05 | 65 | 1021.6 |
| 20260905055454 | 67 | 210 | 4.0 | 17.0 | 0.01 | 0.05 | 0.05 | 64 | 1021.6 |
| 20260905054954 | 67 | 78 | 5.0 | 17.0 | 0.01 | 0.05 | 0.05 | 62 | 1021.2 |
| 20260905054454 | 67 | 246 | 4.0 | 11.0 | 0.00 | 0.04 | 0.04 | 61 | 1021.4 |
| 20260905053953 | 67 | 233 | 4.0 | 11.0 | 0.00 | 0.04 | 0.04 | 61 | 1021.1 |
| 20260905053455 | 67 | 236 | 5.0 | 11.0 | 0.00 | 0.04 | 0.04 | 61 | 1021.3 |
| 20260905052950 | 67 | 264 | 5.0 | 10.0 | 0.00 | 0.04 | 0.04 | 61 | 1020.5 |
| 20260905052450 | 67 | 236 | 5.0 | 11.0 | 0.00 | 0.04 | 0.04 | 62 | 1020.4 |
| 20260905052438 | 67 | 274 | 5.0 | 11.0 | 0.00 | 0.04 | 0.04 | 62 | 1020.2 |
| 20260905051449 | 67 | 248 | 5.0 | 12.0 | 0.00 | 0.04 | 0.04 | 62 | 1020.2 |
| 20260905050950 | 67 | 256 | 4.0 | 12.0 | 0.00 | 0.04 | 0.04 | 63 | 1020.1 |
| 20260905050450 | 67 | 225 | 4.0 | 11.0 | 0.00 | 0.04 | 0.04 | 64 | 1019.5 |
| 20260905045950 | 67 | 277 | 4.0 | 13.0 | 0.00 | 0.04 | 0.04 | 64 | 1019.6 |
| 20260905045450 | 67 | 212 | 3.0 | 13.0 | 0.00 | 0.04 | 0.04 | 66 | 1019.5 |
| 20260905044950 | 66 | 124 | 2.0 | 10.0 | 0.00 | 0.04 | 0.04 | 67 | 1018.8 |
| 20260905044450 | 66 | 257 | 2.0 | 8.0 | 0.00 | 0.04 | 0.04 | 69 | 1019.2 |
| 20260905043950 | 66 | 247 | 2.0 | 8.0 | 0.01 | 0.04 | 0.04 | 70 | 1019.4 |
| 20260905043449 | 66 | 254 | 2.0 | 10.0 | 0.01 | 0.04 | 0.04 | 71 | 1019.4 |
| 20260905042950 | 66 | 240 | 3.0 | 10.0 | 0.01 | 0.04 | 0.04 | 71 | 1019.7 |
| 20260905042449 | 66 | 263 | 2.0 | 8.0 | 0.01 | 0.04 | 0.04 | 70 | 1019.6 |
| 20260905041950 | 66 | 220 | 2.0 | 7.0 | 0.01 | 0.04 | 0.04 | 71 | 1019.0 |
| 20260905041451 | 65 | 239 | 2.0 | 6.0 | 0.01 | 0.04 | 0.04 | 75 | 1018.9 |
| 20260905040951 | 65 | 251 | 1.0 | 5.0 | 0.01 | 0.04 | 0.04 | 76 | 1019.2 |
| 20260905040449 | 66 | 239 | 0.0 | 4.0 | 0.01 | 0.04 | 0.04 | 76 | 1018.7 |
| 20260905035944 | 66 | 224 | 0.0 | 5.0 | 0.01 | 0.04 | 0.04 | 76 | 1018.6 |
| 20260905035438 | 67 | 232 | 1.0 | 5.0 | 0.01 | 0.04 | 0.04 | 73 | 1018.6 |
| 20260905034933 | 68 | 252 | 2.0 | 7.0 | 0.01 | 0.04 | 0.04 | 72 | 1018.8 |
| 20260905034426 | 69 | 226 | 3.0 | 10.0 | 0.01 | 0.04 | 0.04 | 70 | 1019.1 |
| 20260905034406 | 70 | 245 | 3.0 | 10.0 | 0.01 | 0.03 | 0.03 | 67 | 1019.2 |
| 20260905033414 | 70 | 261 | 2.0 | 8.0 | 0.01 | 0.03 | 0.03 | 66 | 1018.7 |
| 20260905032908 | 70 | 214 | 2.0 | 7.0 | 0.01 | 0.03 | 0.03 | 67 | 1018.3 |
| 20260905032402 | 70 | 233 | 3.0 | 9.0 | 0.01 | 0.03 | 0.03 | 69 | 1018.1 |
| 20260905031856 | 70 | 261 | 2.0 | 9.0 | 0.01 | 0.03 | 0.03 | 69 | 1017.9 |
| 20260905031353 | 70 | 260 | 3.0 | 12.0 | 0.01 | 0.03 | 0.03 | 70 | 1017.9 |
| 20260905030845 | 70 | 266 | 2.0 | 12.0 | 0.01 | 0.03 | 0.03 | 72 | 1017.7 |
| 20260905030339 | 70 | 226 | 2.0 | 9.0 | 0.02 | 0.03 | 0.03 | 73 | 1017.8 |
| 20260905025834 | 70 | 235 | 4.0 | 12.0 | 0.03 | 0.03 | 0.03 | 74 | 1017.7 |
| 20260905025326 | 70 | 226 | 5.0 | 12.0 | 0.03 | 0.03 | 0.03 | 76 | 1017.2 |
| 20260905024821 | 70 | 238 | 3.0 | 12.0 | 0.03 | 0.03 | 0.03 | 77 | 1016.7 |
| 20260905024314 | 71 | 227 | 2.0 | 8.0 | 0.02 | 0.02 | 0.03 | 76 | 1016.2 |
| 20260905023809 | 71 | 250 | 3.0 | 6.0 | 0.02 | 0.02 | 0.02 | 75 | 1015.5 |
| 20260905023303 | 71 | 214 | 3.0 | 6.0 | 0.02 | 0.02 | 0.02 | 73 | 1015.4 |
| 20260905022755 | 71 | 204 | 3.0 | 5.0 | 0.02 | 0.02 | 0.02 | 72 | 1015.4 |
| 20260905022251 | 72 | 201 | 3.0 | 5.0 | 0.02 | 0.02 | 0.02 | 72 | 1015.4 |
| 20260905021744 | 72 | 238 | 3.0 | 8.0 | 0.02 | 0.02 | 0.02 | 70 | 1015.4 |
| 20260905021239 | 73 | 193 | 4.0 | 12.0 | 0.02 | 0.02 | 0.02 | 67 | 1015.3 |
| 20260905020732 | 75 | 226 | 3.0 | 12.0 | 0.02 | 0.02 | 0.02 | 64 | 1015.6 |
| 20260905020226 | 74 | 229 | 1.0 | 5.0 | 0.01 | 0.01 | 0.01 | 60 | 1015.8 |
| 20260905015719 | 73 | 207 | 1.0 | 5.0 | 0.00 | 0.00 | 0.00 | 60 | 1015.3 |
| 20260905015217 | 72 | 235 | 1.0 | 5.0 | 0.00 | 0.00 | 0.00 | 62 | 1015.3 |
| 20260905014711 | 71 | 255 | 1.0 | 3.0 | 0.00 | 0.00 | 0.00 | 65 | 1015.1 |
| 20260905014202 | 70 | 246 | 1.0 | 2.0 | 0.00 | 0.00 | 0.00 | 67 | 1015.5 |
| 20260905013657 | 70 | 246 | 0.0 | 2.0 | 0.00 | 0.00 | 0.00 | 67 | 1015.3 |
| 20260905013151 | 69 | 246 | 0.0 | 0.0 | 0.00 | 0.00 | 0.00 | 69 | 1015.3 |
| 20260905012644 | 68 | 246 | 0.0 | 0.0 | 0.00 | 0.00 | 0.00 | 69 | 1015.2 |
| 20260905012139 | 68 | 246 | 0.0 | 0.0 | 0.00 | 0.00 | 0.00 | 69 | 1015.1 |
| 20260905011632 | 69 | 246 | 0.0 | 0.0 | 0.00 | 0.00 | 0.00 | 69 | 1015.2 |
| 20260905011126 | 69 | 246 | 0.0 | 2.0 | 0.00 | 0.00 | 0.00 | 68 | 1015.1 |
| 20260905010621 | 69 | 246 | 0.0 | 2.0 | 0.00 | 0.00 | 0.00 | 67 | 1015.1 |
| 20260905010130 | 69 | 246 | 0.0 | 1.0 | 0.00 | 0.00 | 0.00 | 67 | 1015.0 |
| 20260905005611 | 69 | 246 | 0.0 | 2.0 | 0.00 | 0.00 | 0.00 | 67 | 1014.9 |
| 20260905005105 | 69 | 246 | 0.0 | 2.0 | 0.00 | 0.00 | 0.00 | 67 | 1015.0 |
| 20260905004556 | 69 | 246 | 0.0 | 2.0 | 0.00 | 0.00 | 0.00 | 67 | 1015.0 |
| 20260905004049 | 69 | 247 | 0.0 | 3.0 | 0.00 | 0.00 | 0.00 | 67 | 1015.0 |
| 20260905003544 | 69 | 248 | 1.0 | 3.0 | 0.00 | 0.00 | 0.00 | 67 | 1015.1 |
| 20260905003044 | 69 | 248 | 1.0 | 3.0 | 0.00 | 0.00 | 0.00 | 68 | 1015.1 |
| 20260905002544 | 68 | 248 | 0.0 | 3.0 | 0.00 | 0.00 | 0.00 | 69 | 1015.1 |
| 20260905002042 | 68 | 248 | 0.0 | 3.0 | 0.00 | 0.00 | 0.00 | 70 | 1015.0 |
| 20260905001542 | 67 | 216 | 0.0 | 2.0 | 0.00 | 0.00 | 0.00 | 71 | 1014.8 |
| 20260905001039 | 67 | 213 | 0.0 | 1.0 | 0.00 | 0.00 | 0.00 | 72 | 1014.7 |
| 20260905000538 | 67 | 214 | 0.0 | 1.0 | 0.00 | 0.00 | 0.00 | 71 | 1014.6 |
| 20260905000038 | 67 | 213 | 0.0 | 0.0 | 0.00 | 0.00 | 0.00 | 71 | 1014.7 |
| 20260904235538 | 67 | 214 | 0.0 | 0.0 | 0.00 | 0.00 | 0.00 | 71 | 1014.7 |
| 20260904235037 | 68 | 214 | 0.0 | 0.0 | 0.00 | 0.00 | 0.00 | 71 | 1014.6 |
| 20260904234537 | 68 | 214 | 0.0 | 0.0 | 0.00 | 0.00 | 0.00 | 70 | 1014.6 |
| 20260904234038 | 68 | 214 | 0.0 | 0.0 | 0.00 | 0.00 | 0.00 | 69 | 1014.6 |
| 20260904233535 | 68 | 214 | 0.0 | 0.0 | 0.00 | 0.00 | 0.00 | 69 | 1014.6 |
| 20260904232533 | 69 | 213 | 0.0 | 2.0 | 0.00 | 0.00 | 0.00 | 68 | 1014.7 |
| 20260904232031 | 69 | 214 | 0.0 | 2.0 | 0.00 | 0.00 | 0.00 | 67 | 1014.4 |
| 20260904231530 | 69 | 214 | 0.0 | 2.0 | 0.00 | 0.00 | 0.00 | 67 | 1014.4 |
| 20260904231027 | 69 | 213 | 1.0 | 3.0 | 0.00 | 0.00 | 0.00 | 66 | 1014.6 |
| 20260904230528 | 69 | 84 | 1.0 | 3.0 | 0.00 | 0.00 | 0.00 | 66 | 1014.4 |
| 20260904230025 | 69 | 229 | 0.0 | 2.0 | 0.00 | 0.00 | 0.00 | 67 | 1014.4 |
| 20260904225519 | 69 | 241 | 0.0 | 0.0 | 0.00 | 0.00 | 0.00 | 67 | 1014.2 |
| 20260904225013 | 69 | 241 | 0.0 | 0.0 | 0.00 | 0.00 | 0.00 | 67 | 1014.2 |
| 20260904224507 | 69 | 241 | 0.0 | 0.0 | 0.00 | 0.00 | 0.00 | 67 | 1014.1 |
| 20260904224001 | 69 | 240 | 0.0 | 0.0 | 0.00 | 0.00 | 0.00 | 67 | 1014.1 |
| 20260904223454 | 69 | 241 | 0.0 | 0.0 | 0.00 | 0.00 | 0.00 | 67 | 1014.0 |
| 20260904222950 | 69 | 241 | 0.0 | 0.0 | 0.00 | 0.00 | 0.00 | 67 | 1014.0 |
| 20260904222443 | 69 | 240 | 0.0 | 0.0 | 0.00 | 0.00 | 0.00 | 66 | 1013.9 |
| 20260904221937 | 70 | 241 | 0.0 | 0.0 | 0.00 | 0.00 | 0.00 | 66 | 1013.9 |
| 20260904221431 | 70 | 241 | 0.0 | 0.0 | 0.00 | 0.00 | 0.00 | 65 | 1013.9 |
| 20260904220925 | 70 | 241 | 0.0 | 0.0 | 0.00 | 0.00 | 0.00 | 65 | 1014.0 |
| 20260904220419 | 70 | 241 | 0.0 | 1.0 | 0.00 | 0.00 | 0.00 | 65 | 1014.1 |
| 20260904215913 | 71 | 241 | 0.0 | 2.0 | 0.00 | 0.00 | 0.00 | 64 | 1014.1 |